Stations météo

réclame
Mon MeteoGroup
Europlatform, Pays-Bas (6321): Température de l'air & dewpoint: 15.06.2018 12:00:00 - 21.06.2018 12:00:00 (CEST)Europlatform, Pays-Bas (6321): water temperature: 15.06.2018 12:00:00 - 21.06.2018 12:00:00 (CEST)Europlatform, Pays-Bas (6321): Vitesse du vent & gusts: 15.06.2018 12:00:00 - 21.06.2018 12:00:00 (CEST)Europlatform, Pays-Bas (6321): Direction du vent: 15.06.2018 12:00:00 - 21.06.2018 12:00:00 (CEST)Europlatform, Pays-Bas (6321): reduced air pressure: 15.06.2018 12:00:00 - 21.06.2018 12:00:00 (CEST)Europlatform, Pays-Bas (6321): visibility: 15.06.2018 12:00:00 - 21.06.2018 12:00:00 (CEST)
Date & Time tt [°C] td [°C] tw [°C] ff [km/h] ff [knt] fx [km/h] fx [knt] dd ppp [hPa] vv [km]
21.06.2018 12:00:00 - - - - - - - - - -
21.06.2018 11:00:00 12,9 7,1 14,3 48 26 54 29 WNW 1021,5 33
21.06.2018 10:00:00 13,2 6,5 14,3 50 27 58 31 WNW 1020,6 42
21.06.2018 09:00:00 13,5 7,9 14,3 52 28 54 29 WNW 1019,8 40
21.06.2018 08:00:00 13,5 6,8 14,3 57 31 61 33 NW 1019,2 47
21.06.2018 07:00:00 13,4 7,3 14,3 54 29 61 33 NW 1018,3 34
21.06.2018 06:00:00 13,9 10,2 14,4 48 26 54 29 WNW 1017,6 39
21.06.2018 05:00:00 13,6 12,3 14,0 41 22 43 23 WNW 1017,4 10
21.06.2018 04:00:00 13,9 12,8 14,0 31 17 32 18 WNW 1017,3 10
21.06.2018 03:00:00 14,6 13,6 14,3 24 13 25 14 WNW 1017,0 24
21.06.2018 02:00:00 15,3 13,8 14,3 22 12 25 14 WNW 1017,0 42
21.06.2018 01:00:00 15,2 14,4 14,0 26 14 32 18 WSW 1017,3 32
21.06.2018 00:00:00 14,7 14,6 14,0 37 20 43 23 SW 1017,6 10
20.06.2018 23:00:00 14,5 14,5 14,0 37 20 40 21 SW 1017,5 10
20.06.2018 22:00:00 14,2 14,2 14,3 39 21 43 23 SW 1017,5 0,8
20.06.2018 21:00:00 14,2 14,2 14,0 41 22 43 23 SSW 1017,7 0,3
20.06.2018 20:00:00 14,3 14,2 - 39 21 40 21 SSW 1018,0 0,4
20.06.2018 19:00:00 14,9 14,5 14,3 39 21 43 23 SSW 1018,5 12
20.06.2018 18:00:00 15,3 14,2 14,3 42 23 47 25 SSW 1019,1 21
20.06.2018 17:00:00 15,4 14,1 14,3 44 24 50 27 SW 1019,5 24
20.06.2018 16:00:00 15,3 14,2 14,3 54 29 58 31 SSW 1019,7 19
20.06.2018 15:00:00 15,1 14,0 14,2 44 24 54 29 SSW 1020,3 28
20.06.2018 14:00:00 14,8 13,8 14,1 52 28 58 31 SSW 1020,8 33
20.06.2018 13:00:00 14,8 13,5 14,1 50 27 54 29 SSW 1021,0 39
20.06.2018 12:00:00 14,5 13,8 14,2 46 25 50 27 SSW 1021,6 36
20.06.2018 11:00:00 13,8 13,8 14,0 42 23 50 27 SSW 1021,4 33
20.06.2018 10:00:00 14,0 13,9 14,0 39 21 47 25 SSW 1021,6 1,4
20.06.2018 09:00:00 13,7 13,7 14,0 40 21 47 25 SSW 1021,6 1,7
20.06.2018 08:00:00 13,8 13,8 14,1 39 21 40 21 SSW 1021,5 1,1
20.06.2018 07:00:00 14,0 14,0 14,0 35 19 36 19 SSW 1021,5 1,2
20.06.2018 06:00:00 14,1 14,1 14,2 35 19 36 19 SSW 1021,6 0,5
20.06.2018 05:00:00 14,2 14,2 14,0 34 18 36 19 SSW 1021,6 0,6
20.06.2018 04:00:00 14,5 14,5 14,0 29 16 40 21 SSW 1021,7 0,3
20.06.2018 03:00:00 14,6 14,6 14,0 34 18 40 21 SSW 1022,2 0,8
20.06.2018 02:00:00 14,9 14,5 14,0 34 18 40 21 SSW 1022,7 10
20.06.2018 01:00:00 15,6 14,8 14,0 35 19 40 21 S 1022,5 10
20.06.2018 00:00:00 16,0 14,7 14,0 39 21 43 23 SSW 1023,0 10
19.06.2018 23:00:00 16,2 14,6 14,0 39 21 40 21 SSW 1023,2 10
19.06.2018 22:00:00 16,0 14,6 14,0 31 17 32 18 SSW 1023,1 10
19.06.2018 21:00:00 15,8 14,6 14,0 25 14 29 16 S 1022,9 37
19.06.2018 20:00:00 15,9 14,7 14,0 29 16 32 18 S 1023,1 37
19.06.2018 19:00:00 15,9 14,6 14,0 22 12 25 14 S 1023,3 36
19.06.2018 18:00:00 15,8 14,7 14,0 22 12 25 14 S 1023,6 23
19.06.2018 17:00:00 15,8 14,8 14,0 24 13 25 14 S 1023,7 21
19.06.2018 16:00:00 15,7 14,9 14,0 22 12 25 14 S 1023,9 18
19.06.2018 15:00:00 15,8 14,8 14,0 21 11 22 12 SSW 1024,0 20
19.06.2018 14:00:00 15,8 14,6 - 22 12 29 16 SSW 1024,1 25
19.06.2018 13:00:00 15,8 14,2 13,9 26 14 29 16 SW 1023,9 38
19.06.2018 12:00:00 15,8 14,1 13,9 24 13 29 16 SW 1023,6 47
19.06.2018 11:00:00 15,8 14,2 14,0 28 15 29 16 SW 1023,3 33
19.06.2018 10:00:00 15,6 14,3 13,9 29 16 32 18 SW 1023,0 22
19.06.2018 09:00:00 15,5 14,5 14,0 34 18 36 19 SW 1022,8 16
19.06.2018 08:00:00 15,6 14,6 14,0 35 19 40 21 SW 1022,1 10
19.06.2018 07:00:00 15,1 14,5 14,0 37 20 40 21 SW 1021,6 10
19.06.2018 06:00:00 15,4 14,6 14,0 37 20 40 21 SW 1021,3 10
19.06.2018 05:00:00 15,7 14,5 14,0 32 18 43 23 SW 1020,7 14
19.06.2018 04:00:00 15,8 14,4 14,1 36 19 43 23 SW 1020,2 19
19.06.2018 03:00:00 16,0 14,2 14,1 29 16 40 21 SW 1019,8 21
19.06.2018 02:00:00 16,1 14,1 14,0 32 18 43 23 SW 1019,6 18
19.06.2018 01:00:00 15,7 13,9 14,0 41 22 50 27 SW 1019,4 15
19.06.2018 00:00:00 15,7 13,6 13,9 46 25 50 27 SSW 1019,7 16
18.06.2018 23:00:00 15,5 13,4 14,0 42 23 50 27 SSW 1019,7 17
18.06.2018 22:00:00 15,3 12,9 13,9 48 26 54 29 SSW 1019,5 17
18.06.2018 21:00:00 15,0 12,5 13,9 50 27 58 31 SSW 1019,2 22
18.06.2018 20:00:00 15,1 12,4 13,9 50 27 54 29 SSW 1019,1 25
18.06.2018 19:00:00 15,1 12,5 13,9 50 27 54 29 SSW 1019,1 31
18.06.2018 18:00:00 15,1 13,0 14,0 44 24 50 27 SSW 1019,7 24
18.06.2018 17:00:00 15,1 13,3 13,9 41 22 43 23 SSW 1019,8 20
18.06.2018 16:00:00 15,0 13,6 13,9 36 19 43 23 SSW 1019,9 18
18.06.2018 15:00:00 14,9 13,9 13,9 34 18 40 21 SSW 1019,7 15
18.06.2018 14:00:00 14,6 13,4 13,9 39 21 47 25 SSW 1019,6 21
18.06.2018 13:00:00 14,6 13,4 13,9 46 25 54 29 SW 1019,5 25
18.06.2018 12:00:00 15,1 13,8 13,9 44 24 47 25 SW 1019,1 20
18.06.2018 11:00:00 14,9 14,4 13,8 39 21 40 21 SSW 1018,6 13
18.06.2018 10:00:00 14,6 14,3 14,0 35 19 40 21 SSW 1018,4 7
18.06.2018 09:00:00 14,6 14,3 14,0 37 20 40 21 SSW 1018,0 10
18.06.2018 08:00:00 14,5 14,2 14,0 39 21 40 21 SSW 1017,6 3,2
18.06.2018 07:00:00 14,7 14,3 14,0 37 20 43 23 SW 1017,7 10
18.06.2018 06:00:00 14,8 14,2 14,0 35 19 47 25 SSW 1017,5 10
18.06.2018 05:00:00 14,8 14,1 14,0 37 20 47 25 SSW 1017,2 10
18.06.2018 04:00:00 14,7 13,8 14,0 42 23 47 25 SSW 1017,2 10
18.06.2018 03:00:00 14,6 13,6 14,0 44 24 54 29 SW 1017,5 10
18.06.2018 02:00:00 14,7 13,2 13,9 42 23 54 29 SSW 1017,7 19
18.06.2018 01:00:00 14,7 12,7 13,9 44 24 54 29 SSW 1017,9 21
18.06.2018 00:00:00 14,7 12,6 13,8 48 26 54 29 SSW 1018,1 21
17.06.2018 23:00:00 14,7 12,6 13,7 44 24 50 27 SSW 1018,2 20
17.06.2018 22:00:00 14,9 12,1 13,7 44 24 50 27 SSW 1018,0 21
17.06.2018 21:00:00 14,9 11,5 13,7 42 23 47 25 SSW 1018,2 27
17.06.2018 20:00:00 14,9 12,0 13,7 42 23 47 25 SSW 1018,0 21
17.06.2018 19:00:00 14,7 12,2 13,7 42 23 47 25 SSW 1017,7 22
17.06.2018 18:00:00 14,7 11,2 13,7 37 20 43 23 SSW 1018,0 26
17.06.2018 17:00:00 14,6 12,5 13,7 34 18 36 19 SSW 1018,1 22
17.06.2018 16:00:00 14,6 12,1 13,7 34 18 36 19 SSW 1017,9 35
17.06.2018 15:00:00 14,5 11,6 13,7 31 17 36 19 SW 1017,7 48
17.06.2018 14:00:00 14,4 11,4 13,8 31 17 36 19 SW 1017,5 42
17.06.2018 13:00:00 14,3 11,2 13,7 26 14 32 18 SW 1017,1 38
17.06.2018 12:00:00 14,4 11,1 13,7 29 16 36 19 SW 1016,7 39
17.06.2018 11:00:00 14,4 11,0 13,7 29 16 36 19 SW 1016,7 48
17.06.2018 10:00:00 14,3 11,2 13,7 29 16 32 18 SW 1016,6 45
17.06.2018 09:00:00 14,4 10,7 13,7 31 17 32 18 WSW 1015,9 45
17.06.2018 08:00:00 14,3 11,2 13,7 31 17 40 21 WSW 1015,3 38
17.06.2018 07:00:00 14,3 10,5 13,7 34 18 40 21 WSW 1014,9 42
17.06.2018 06:00:00 14,4 10,5 13,7 37 20 40 21 WSW 1014,5 39
17.06.2018 05:00:00 14,5 11,7 13,7 37 20 43 23 SW 1014,4 23
17.06.2018 04:00:00 14,5 13,0 14,0 42 23 47 25 SW 1014,3 10
17.06.2018 03:00:00 14,5 13,0 13,7 42 23 47 25 SW 1014,3 10
17.06.2018 02:00:00 14,6 12,8 13,8 42 23 50 27 SSW 1014,2 17
17.06.2018 01:00:00 14,4 12,3 13,8 50 27 54 29 SSW 1014,1 24
17.06.2018 00:00:00 14,6 12,5 13,7 46 25 54 29 SSW 1014,3 26
16.06.2018 23:00:00 14,7 12,7 13,7 44 24 54 29 SSW 1014,5 28
16.06.2018 22:00:00 14,9 12,4 13,7 42 23 50 27 SSW 1014,2 27
16.06.2018 21:00:00 14,8 12,3 13,7 41 22 47 25 SSW 1014,4 25
16.06.2018 20:00:00 14,7 11,6 13,6 44 24 50 27 SSW 1014,4 33
16.06.2018 19:00:00 14,7 11,0 13,6 48 26 50 27 SSW 1014,5 33
16.06.2018 18:00:00 14,8 10,7 13,6 41 22 47 25 SSW 1014,8 38
16.06.2018 17:00:00 14,8 10,8 13,6 37 20 40 21 SSW 1015,1 40
16.06.2018 16:00:00 14,6 11,5 13,7 34 18 36 19 SSW 1014,9 36
16.06.2018 15:00:00 14,6 13,1 13,6 28 15 29 16 SSW 1014,9 30
16.06.2018 14:00:00 14,7 12,5 13,6 21 11 22 12 SSW 1015,0 45
16.06.2018 13:00:00 14,7 12,3 13,6 16 9 18 10 SW 1015,1 36
16.06.2018 12:00:00 14,7 11,9 13,6 15 8 22 12 WSW 1014,7 36
16.06.2018 11:00:00 14,5 13,0 13,7 22 12 29 16 SW 1014,5 19
16.06.2018 10:00:00 14,6 13,5 14,0 29 16 32 18 SSW 1014,5 18
16.06.2018 09:00:00 14,6 13,6 14,0 26 14 32 18 S 1014,4 10
16.06.2018 08:00:00 14,5 13,4 14,0 31 17 32 18 S 1014,1 10
16.06.2018 07:00:00 14,4 13,4 14,0 25 14 36 19 S 1014,0 15
16.06.2018 06:00:00 14,3 13,1 14,0 29 16 32 18 SSW 1014,4 15
16.06.2018 05:00:00 14,5 13,0 13,6 25 14 29 16 SSW 1014,7 17
16.06.2018 04:00:00 14,9 11,9 13,6 18 10 22 12 S 1014,8 30
16.06.2018 03:00:00 15,0 11,9 13,6 14 8 22 12 S 1015,0 41
16.06.2018 02:00:00 15,2 11,9 13,7 14 8 18 10 S 1015,5 32
16.06.2018 01:00:00 15,1 12,0 13,6 14 8 18 10 S 1015,7 38
16.06.2018 00:00:00 14,5 13,7 14,0 11 6 11 6 S 1016,1 10
15.06.2018 23:00:00 13,9 13,9 13,6 8 4 14 8 SSE 1016,1 3,0
15.06.2018 22:00:00 13,8 13,7 14,0 13 7 14 8 SE 1016,1 0,2
15.06.2018 21:00:00 13,6 13,5 13,6 9 5 11 6 ESE 1016,2 0,2
15.06.2018 20:00:00 13,6 13,3 13,5 5 3 7 4 ENE 1016,4 0,2
15.06.2018 19:00:00 14,7 13,9 13,5 5 3 7 4 NNE 1016,5 7
15.06.2018 18:00:00 15,4 14,0 13,5 11 6 14 8 NNW 1016,6 7
15.06.2018 17:00:00 16,7 14,5 13,5 9 5 11 6 W 1016,7 11
15.06.2018 16:00:00 15,7 14,8 13,5 9 5 11 6 SW 1016,9 12
15.06.2018 15:00:00 14,9 14,0 13,5 13 7 14 8 S 1016,9 10
15.06.2018 14:00:00 14,6 13,9 13,5 9 5 11 6 SSE 1017,2 6
15.06.2018 13:00:00 14,4 13,8 13,5 11 6 14 8 SSE 1016,9 5
15.06.2018 12:00:00 14,6 14,0 13,5 11 6 14 8 SE 1016,8 6

tt = Température de l'air
td = dewpoint
tw = water temperature
ff = Vitesse du vent
fx = gusts
dd = Direction du vent
ppp = reduced air pressure
vv = visibility

stations d'obs. à proximité